Location: Chotou?
(49.9006°N, 14.5096°E)
Time: 11:28:03
(UTC+00:00)

Daily predictions for brighter satellites

Satellite Brightness Start Highest point End
(mag) Time Altitude Azimuth Time Altitude Azimuth Time Altitude Azimuth
SPOT 1/Viking Rocket 3.6 17:44:40 10° SSE 17:49:46 62° ENE 17:54:52 10° N
Cosmos 2322 Rocket 3.7 17:46:16 10° WSW 17:51:39 42° NW 17:57:05 10° NNE
Cosmos 2237 Rocket 3.2 17:48:10 10° SSE 17:52:24 22° ESE 17:56:40 10° NE
Helios 1B rocket 3.2 17:49:19 10° S 17:53:04 52° W 17:56:52 10° NNW
SL-08 R/B 3.6 17:49:51 10° NNE 17:54:39 50° E 17:59:26 10° S
ISS -2.1 17:52:34 10° S 17:55:00 19° SE 17:57:27 10° E
CZ-4B R/B 3.3 17:51:57 10° SE 17:55:37 42° ENE 17:59:29 10° N
Cosmos 2219 Rocket 2.5 17:50:56 10° SW 17:56:37 76° WNW 18:02:20 10° NNE
CSL-04 Rocket 4.4 17:52:08 10° SE 17:56:55 34° ENE 18:01:40 10° N
NOSS 2-1 (E) 3.6 17:59:03 10° NW 18:02:47 79° SW 18:07:55 10° SE
Cosmos 1328 Rocket 3.5 17:59:19 10° N 18:03:37 69° ENE 18:07:54 10° SSE
Cosmos 1356 Rocket 3.8 18:02:22 10° N 18:06:24 45° ENE 18:10:25 10° SSE
Cosmos 1674 2.2 18:03:34 10° N 18:06:56 83° E 18:10:14 10° SSE
Lacrosse 4 Rocket 2.8 18:03:40 10° NW 18:07:44 40° WSW 18:11:45 10° S
NOSS 2-1 (D) 3.9 18:06:45 10° NW 18:10:27 65° SW 18:15:31 10° SSE
BREEZE-M DEB (TANK) 3.2 18:08:33 10° W 18:11:07 87° S 18:16:40 10° E
SJ-6B 2.6 18:07:59 10° SSE 18:11:36 90° E 18:15:13 10° NNW
SeaSat 1 3.5 18:08:18 10° NNE 18:13:03 49° NW 18:17:46 10° SW
Iridium 4 Rocket 3.1 18:09:44 10° N 18:13:56 82° W 18:18:05 10° S
Meteor 1-4 Rocket 1.6 18:11:48 10° N 18:14:28 75° E 18:17:06 10° SSE
CARTOSAT-1 3.8 18:10:34 10° SE 18:14:38 48° ENE 18:18:44 10° N
Cosmos 2333 Rocket 3.8 18:09:20 10° WSW 18:14:43 38° NW 18:20:06 10° NNE
Cosmos 1340 3.7 18:12:55 10° SSW 18:16:02 42° WNW 18:19:10 10° N
ATLAS CENTAUR R/B 2.4 18:13:40 10° SSE 18:16:11 18° ESE 18:18:47 10° ENE
Cosmos 2369 Rocket 3.9 18:15:24 10° N 18:19:28 19° NE 18:23:25 10° E
ARGOS Delta rocket 3.9 18:16:30 10° SSE 18:21:32 81° ENE 18:26:19 10° N
Cosmos 1980 4.1 18:16:26 10° S 18:21:40 39° ESE 18:26:54 10° NE
Cosmos 1733 3.6 18:22:04 10° SSE 18:25:09 32° E 18:28:16 10° NNE
Cosmos 1891 Rocket 4.4 18:20:02 10° S 18:26:03 68° E 18:32:14 10° NNE
Cosmos 1943 Rocket 2.2 18:22:08 10° NNW 18:27:39 64° ENE 18:32:34 13° SE
NOSS 0 Rocket 4.0 18:21:42 10° S 18:27:48 59° ESE 18:33:55 10° NE
USA 276 2.4 18:26:09 10° W 18:28:56 46° SSW 18:30:24 22° SE
Nadezhda 4 Rocket 4.2 18:23:58 10° N 18:30:07 54° ENE 18:36:17 10° SSE
ACS3 Solar Sail 2.2 18:24:38 10° SE 18:30:43 48° ENE 18:36:50 10° N
Cosmos 1400 Rocket 3.9 18:27:26 10° NNW 18:31:06 43° W 18:34:41 10° SSW
CSL-04 Debris 4.2 18:27:14 10° SSE 18:32:39 67° ENE 18:38:06 10° N
Cosmos 2322 4.0 18:27:28 10° SW 18:33:07 72° WNW 18:38:47 10° NNE
Sich 1 4.1 18:30:57 17° SE 18:33:07 24° E 18:36:36 10° NNE
BlueWalker 3 3.7 18:31:40 10° W 18:34:45 25° SW 18:37:51 10° SSE
Cosmos 1570 Rocket 4.4 18:31:05 10° S 18:35:59 41° ESE 18:40:54 10° NE
ERS-1 Rocket 4.4 18:34:08 16° E 18:36:21 22° ENE 18:40:07 10° N
Cosmos 1726 3.9 18:34:11 10° SW 18:36:35 26° WNW 18:39:01 10° NNW
Terra 3.5 18:35:11 15° E 18:36:50 18° ENE 18:39:55 10° NNE
Cosmos 1513 Rocket 4.4 18:35:53 10° S 18:41:56 80° E 18:48:05 10° NNE
Cosmos 1315 Rocket 2.9 18:43:08 10° N 18:47:02 52° ENE 18:49:14 23° SE
Cosmos 1805 4.0 18:47:20 27° E 18:47:39 28° E 18:50:49 10° NNE
Cosmos 1464 Rocket 4.0 18:43:33 10° S 18:49:49 71° E 18:56:11 10° NNE
Cosmos 1125 Rocket 3.4 18:45:59 10° NNW 18:51:13 88° ENE 18:55:24 16° SSE
Cosmos 1842 4.2 18:48:34 10° NNW 18:52:03 44° W 18:55:30 10° SSW
ATLAS 2AS CENTAUR R/B 4.4 18:46:14 10° WNW 18:52:18 29° NNW 18:58:11 10° NE
SL-16 R/B 3.4 18:53:32 21° E 18:53:32 21° E 18:56:56 10° NE
Cosmos 1536 2.6 18:50:48 10° S 18:54:36 89° E 18:58:28 10° N
USA 59 Rocket 1.6 18:51:05 10° WNW 18:54:40 32° SW 18:59:24 10° S
Okean 3 Rocket 3.6 18:50:36 10° S 18:55:05 88° WNW 18:59:33 10° N
Cosmos 1707 3.4 18:52:26 10° NNW 18:55:53 48° W 18:59:18 10° S
Cosmos 1515 Rocket 3.7 18:51:51 10° NNW 18:56:11 76° W 19:00:31 10° S
COSMOS 2428 3.3 18:51:20 10° SW 18:56:59 60° WNW 19:02:41 10° NNE
Okean O Rocket 1.5 18:57:42 20° SSE 19:00:47 78° ENE 19:05:13 10° NNW
SL-14 R/B 3.5 19:01:07 10° N 19:04:47 44° ENE 19:05:27 40° ESE
Cosmos 2278 Rocket 3.0 19:01:45 10° NW 19:07:12 49° WSW 19:12:37 10° S
Meteor 1-13 Rocket 4.4 19:03:36 10° NNW 19:09:30 79° W 19:14:59 11° S
USA 306 2.9 19:06:30 10° W 19:09:44 54° NNW 19:11:32 26° NE
CZ-4 R/B 3.1 19:06:35 10° SSW 19:09:59 30° W 19:13:27 10° NNW
PSLV R/B 3.4 19:09:57 46° SE 19:10:51 69° ENE 19:14:21 10° N
Meteor 2-9 Rocket 4.0 19:05:45 10° S 19:11:03 73° E 19:16:30 10° NNE
Cosmos 2034 Rocket 3.9 19:05:56 10° S 19:12:06 71° E 19:18:14 10° NNE
CZ-4B R/B 3.7 19:07:51 10° S 19:13:14 59° WSW 19:18:34 10° NNW
Cosmos 1500 Rocket 3.4 19:10:44 18° S 19:13:51 67° E 19:18:10 10° NNE
Resurs 01 Rocket 2.7 19:11:12 10° S 19:15:25 44° W 19:19:41 10° NNW
NOSS 3-3 (C) 3.8 19:11:52 10° SSW 19:17:04 51° ESE 19:23:10 10° NE
MetOp-B 4.2 19:14:53 32° SE 19:17:20 62° ENE 19:22:39 10° N
Cosmos 2228 Rocket 3.8 19:13:16 10° N 19:17:30 35° ENE 19:17:55 35° E
Meteor 2-10 4.3 19:12:22 10° SSW 19:17:58 82° W 19:23:45 10° N
Meteor 1-23 Rocket 4.1 19:12:47 10° N 19:18:26 78° ENE 19:21:41 27° SSE
Cosmos 1743 Rocket 3.5 19:19:19 41° SSE 19:20:33 58° E 19:24:50 10° NNE
CRYOSAT 2 4.5 19:15:46 10° NNE 19:20:34 52° E 19:21:56 39° SE
USA 186 3.9 19:18:06 10° SSW 19:20:50 25° W 19:23:36 10° NW
SPOT 3 Rocket 4.5 19:20:19 28° E 19:21:10 29° ENE 19:25:34 10° N
SPOT 5 2.6 19:22:14 40° SE 19:23:48 72° ENE 19:28:15 10° N
Okean-O 2.5 19:23:04 41° SSE 19:24:34 80° ENE 19:29:00 10° NNW
USA 267 3.8 19:21:01 20° ENE 19:25:30 52° N 19:31:48 10° WNW
Cosmos 2208 Rocket 3.9 19:22:00 10° SSW 19:27:15 79° ESE 19:32:37 10° NNE
Cosmos 1408 Rocket 3.8 19:24:30 10° SSW 19:28:51 69° WNW 19:33:16 10° N
NOSS 3-3 (A) 3.7 19:25:51 10° SSW 19:31:12 67° SE 19:37:32 10° NE
ISS -3.3 19:28:02 10° WSW 19:30:43 52° SW 19:30:43 52° SW
MOS 1 4.3 19:31:48 29° SSE 19:34:52 85° WSW 19:40:36 10° NNW
Cosmos 2237 Rocket 2.5 19:30:19 10° SW 19:35:56 69° WNW 19:41:34 10° NNE
Cosmos 2279 Rocket 4.4 19:35:28 39° ESE 19:36:19 41° E 19:42:04 10° NNE
Aureole 3 Rocket 3.7 19:31:12 10° S 19:38:00 86° WNW 19:42:49 10° N
Cosmos 1607 4.1 19:32:50 10° S 19:38:58 48° ESE 19:45:07 10° NE
Cosmos 2297 3.7 19:40:17 10° NNW 19:45:55 64° ENE 19:47:04 52° ESE
MOS 1 Rocket 3.4 19:45:39 49° SSE 19:47:06 90° E 19:52:26 10° NNW
Meteor 1-11 Rocket 4.4 19:41:40 10° SSW 19:47:08 54° WNW 19:52:35 10° N
Spot 2 Rocket 3.5 19:50:59 57° E 19:51:21 59° ENE 19:56:19 10° N
Cosmos 158 Rocket 4.4 19:47:56 10° SW 19:52:43 56° WNW 19:57:31 10° NNE
ATLAS CENTAUR R/B 1.8 19:49:39 10° WSW 19:53:11 53° NW 19:54:53 28° NNE
NOSS 3-4 (A) 3.8 19:48:02 10° NW 19:54:44 75° NE 19:57:11 46° ESE
NOSS 3-4 (C) 3.8 19:48:08 10° NW 19:54:50 75° NE 19:57:17 46° ESE
Cosmos 1805 Rocket 4.1 19:52:47 26° SW 19:55:01 56° WNW 19:59:18 10° N
Cosmos 1633 Rocket 4.3 20:06:11 31° NNE 20:06:11 31° NNE 20:08:39 10° NNE
Cosmos 2369 Rocket 2.1 19:58:48 10° NNW 20:04:33 72° ENE 20:05:11 65° ESE
Cosmos 1862 Rocket 3.7 20:02:37 10° N 20:06:32 68° N 20:06:32 68° N
Sich 1 4.4 20:07:33 18° SW 20:10:19 37° WNW 20:14:21 10° N
Cosmos 1943 Rocket 4.0 20:06:37 10° NW 20:10:55 24° WSW 20:14:05 15° SW
Cosmos 1707 Rocket 3.7 20:06:59 10° NNW 20:11:05 72° NW 20:11:05 72° NW
Terra 1.8 20:13:53 76° W 20:13:53 76° W 20:18:36 10° NNW
ERS-1 Rocket 3.1 20:14:03 61° SW 20:14:39 66° WSW 20:19:40 10° NNW
ACS3 Solar Sail 3.1 20:09:35 12° SSW 20:14:54 37° W 20:20:48 10° NNW
Cosmos 1666 Rocket 4.4 20:18:28 43° NNE 20:18:28 43° NNE 20:21:27 10° N
Cosmos 1975 3.8 20:18:59 43° NW 20:18:59 43° NW 20:22:15 10° N
Ariane Rocket 2.9 20:24:21 82° NNW 20:24:21 82° NNW 20:29:14 10° NNW
Cosmos 2266 Rocket 4.0 20:18:47 10° N 20:25:00 62° ENE 20:25:07 62° E
SL-16 R/B 2.3 20:35:16 59° WSW 20:36:18 74° WNW 20:42:01 10° NNE
Okean O Rocket 4.3 20:35:20 10° WSW 20:37:35 14° W 20:39:51 10° WNW
Cosmos 1656 Rocket 4.2 20:35:45 10° NW 20:41:10 49° WSW 20:41:19 49° WSW
ATLAS 2AS CENTAUR R/B 4.2 20:39:23 10° NW 20:45:21 29° NNE 20:49:08 18° ENE
SL-08 ROCKET BODY 4.3 20:40:47 10° N 20:46:46 83° NNE 20:46:46 83° NNE
Okean 1-7 4.4 20:45:59 10° NNW 20:48:39 36° NNW 20:48:39 36° NNW
Cosmos 2263 4.4 20:46:46 10° NNW 20:51:55 66° WNW 20:51:55 66° WNW
SPOT 3 Rocket 4.4 21:00:55 45° WNW 21:00:55 45° WNW 21:05:19 10° NNW
USA 267 3.1 21:08:22 86° NNW 21:08:22 86° NNW 21:14:49 10° WNW
Cosmos 1655 Rocket 4.1 21:04:52 10° N 21:10:37 73° N 21:10:37 73° N
Cosmos 2344 4.3 21:06:41 10° NW 21:14:21 54° NE 21:17:17 41° E
Meteor 2-5 Rocket 4.4 21:19:55 10° N 21:24:27 52° N 21:24:27 52° N
Meteor 1-24 Rocket 4.4 21:20:52 10° N 21:25:23 52° N 21:25:23 52° N
ATLAS CENTAUR R/B 4.3 21:29:18 10° WNW 21:35:08 - NNE 21:29:51 12° NW
Cosmos 2369 Rocket 4.1 21:43:42 10° NW 21:46:58 21° W 21:46:58 21° W
Cosmos 1980 Rocket 4.1 22:06:13 10° N 22:10:30 22° NE 22:10:30 22° NE
USA 215 4.2 22:09:01 10° ENE 22:12:41 37° NE 22:12:41 37° NE
SL-16 R/B 4.5 22:17:21 10° W 22:21:25 20° NW 22:25:30 10° N
ATLAS 2AS CENTAUR R/B 3.2 22:30:49 10° NW 22:36:31 53° N 22:36:31 53° N
Cosmos 1697 Rocket 4.2 22:49:23 10° NNW 22:52:28 33° NNW 22:52:28 33° NNW
Cosmos 2082 Rocket 4.3 23:25:38 18° ENE 23:25:38 18° ENE 23:27:31 10° NE
Cosmos 2344 4.4 23:20:56 10° NW 23:27:14 49° W 23:27:14 49° W
SL-16 R/B 4.2 23:31:18 10° NNW 23:35:54 24° NE 23:37:43 21° ENE
CZ-2C R/B 4.2 23:46:19 30° NE 23:46:19 30° NE 23:49:49 10° N
Resurs 1-4 Rocket 4.5 23:42:37 10° NE 23:44:45 14° ENE 23:44:45 14° ENE
